This is the latest recevied weather packets stored in our database for station/object KD2RHT-13. If no packets are shown the sender has not sent any weather packets the latest 10 day(s).
| Time | Temp. | Humidity | Pressure | Rain* | Wind** | Luminosity | Snow |
|---|---|---|---|---|---|---|---|
| 1778151628 | 3.89° C | 94% | 1014.2 hPa | 0 mm | - | 55 W/m² | - |
| 1778151325 | 3.33° C | 95% | 1013.9 hPa | 0 mm | - | 65 W/m² | - |
| 1778151020 | 2.78° C | 95% | 1014.2 hPa | 0 mm | - | 38 W/m² | - |
| 1778150718 | 2.22° C | 96% | 1013.9 hPa | 0 mm | - | 26 W/m² | - |
| 1778150414 | 2.22° C | 96% | 1013.5 hPa | 0 mm | - | 24 W/m² | - |
| 1778150111 | 1.67° C | 96% | 1013.9 hPa | 0 mm | - | 21 W/m² | - |
| 1778149807 | 1.67° C | 96% | 1014.2 hPa | 0 mm | - | 19 W/m² | - |
| 1778149504 | 1.11° C | 95% | 1013.9 hPa | 0 mm | - | 16 W/m² | - |
| 1778149200 | 1.11° C | 95% | 1013.9 hPa | 0 mm | - | 13 W/m² | - |
| 1778148895 | 1.11° C | 94% | 1013.9 hPa | 0 mm | - | 12 W/m² | - |
| 1778148592 | 1.11° C | 94% | 1013.9 hPa | 0 mm | - | 9 W/m² | - |
| 1778148290 | 1.11° C | 94% | 1013.9 hPa | 0 mm | - | 6 W/m² | - |
| 1778147988 | 1.11° C | 93% | 1013.9 hPa | 0 mm | - | 4 W/m² | - |
| 1778147685 | 1.11° C | 93% | 1013.9 hPa | 0 mm | - | 3 W/m² | - |
| 1778147382 | 1.11° C | 93% | 1013.9 hPa | 0 mm | - | 2 W/m² | - |
| 1778147078 | 1.67° C | 92% | 1013.9 hPa | 0 mm | - | 0 W/m² | - |
| 1778146775 | 1.67° C | 92% | 1013.9 hPa | 0 mm | - | 0 W/m² | - |
| 1778146473 | 1.67° C | 91% | 1013.9 hPa | 0 mm | - | 0 W/m² | - |
| 1778146171 | 1.67° C | 91% | 1013.9 hPa | 0 mm | - | 0 W/m² | - |
| 1778145867 | 2.22° C | 90% | 1013.9 hPa | 0 mm | - | 0 W/m² | - |
| 1778145564 | 2.22° C | 90% | 1013.9 hPa | 0 mm | - | 0 W/m² | - |
| 1778145260 | 2.22° C | 90% | 1013.9 hPa | 0 mm | - | 0 W/m² | - |
| 1778144956 | 2.22° C | 90% | 1013.9 hPa | 0 mm | - | 0 W/m² | - |
| 1778144652 | 2.22° C | 89% | 1013.9 hPa | 0 mm | - | 0 W/m² | - |
| 1778144349 | 2.78° C | 89% | 1013.9 hPa | 0 mm | - | 0 W/m² | - |
* Rain latest hour (hover to see other rain measurements)
** Current wind speed in m/s (hover to see current wind gust speed)